Location: Bakov nad Jizerou
(50.4784°N, 14.9394°E)
Time: 09:23:33
(UTC+00:00)

Tsikada Rocket - Pass Details

Date: 16 June 2021
Orbit: 959 x 1008 km, 82.9° (Epoch: 04 August)

Event Time Altitude Azimuth Distance (km) Brightness Sun altitude
Exits shadow 23:28:37 23° 198° (SSW) 1,927 5.0 -15.9°
Maximum altitude 23:32:39 76° 281° (W) 999 4.0 -15.8°
Drops below altitude 10° 23:38:51 10° 7° (N) 2,707 7.7 -15.7°
Sets 23:41:22 0° 9° (N) 3,656 8.9 -15.6°
